User: anonymous
Location: Hale Hill Observatory
(39.3806°N, 86.8431°W)
Time: 21:55:47
(UTC-04:00)
Language:

Cosmos 990 Rocket - Orbit

View from above orbital plane
View from above orbital plane
View from above satellite
View from above satellite

Ground track
Ground track

The orbit data is extracted from the following two-line orbital elements,

1 10677U 78019B   14233.48208855  .00000104  00000-0  41805-4 0  4812
2 10677 074.0383 045.3621 0015288 009.6350 350.5094 14.39665226914145
Epoch (UTC): 21 August 2014 11:34:12
Eccentricity: 0.0015288
inclination: 74.0383°
perigee height: 748 km
apogee height: 770 km
right ascension of ascending node: 45.3621°
argument of perigee: 9.6350°
revolutions per day: 14.39665226
mean anomaly at epoch: 350.5094°
orbit number at epoch: 91414

The dashed part of the orbit path shows where the satellite is in the earth's shadow,  

DLR